Llagostera





Hora UTC 06:35
Temperatura 20.2 ºC
Humitat 90.0 %
Pressió 1020.9 hPa
Pluja 0.2 mm
Velocitat vent 3.2 km/h
Direcció vent

Dades diàries 2022-07-07



Hora UTC (hivern +1h; estiu +2h)
Temperatura (ºC) Humitat (%) Pressió (hPa) Velocitat vent (km/h) Precipitació (mm)
Hora UTC Aire Humitat Pressió Vel. Dir. Vel. Max Dir. Intent. màx 5 min.
00:05 20.6 95.0 1020.4 0.0 0.0 0.0
00:15 20.4 95.0 1020.5 0.0 11.3 0.2
00:25 20.1 95.0 1020.6 1.6 11.3 0.0
00:35 19.7 95.0 1020.5 3.2 11.3 0.0
00:45 19.7 95.0 1020.5 3.2 11.3 0.0
00:55 19.6 95.0 1020.5 3.2 11.3 0.0
01:05 19.2 95.0 1020.5 3.2 11.3 0.0
01:15 19.1 95.0 1020.4 4.8 11.3 0.0
01:25 18.9 95.0 1020.4 4.8 11.3 0.0
01:35 18.8 95.0 1020.4 3.2 11.3 0.0
01:45 18.7 95.0 1020.3 0.0 11.3 0.0
01:55 18.8 95.0 1020.4 1.6 11.3 0.0
02:05 18.7 95.0 1020.3 0.0 11.3 0.0
02:15 18.6 95.0 1020.2 0.0 11.3 0.0
02:25 18.7 95.0 1020.1 0.0 11.3 0.0
02:35 18.6 95.0 1020.0 0.0 11.3 0.0
02:45 18.7 95.0 1020.0 0.0 11.3 0.0
02:55 18.4 95.0 1020.1 0.0 11.3 0.0
03:05 18.4 95.0 1020.1 0.0 11.3 0.0
03:15 18.3 95.0 1020.1 0.0 11.3 0.0
03:25 18.4 96.0 1020.1 0.0 11.3 0.0
03:35 18.4 96.0 1020.1 0.0 11.3 0.0
03:45 18.4 96.0 1020.1 0.0 11.3 0.0
03:55 18.4 96.0 1020.2 0.0 11.3 0.0
04:05 18.1 95.0 1020.2 0.0 11.3 0.0
04:15 17.7 95.0 1020.2 0.0 11.3 0.0
04:25 17.4 95.0 1020.4 1.6 11.3 0.0
04:35 17.2 95.0 1020.4 0.0 11.3 0.0
04:45 16.9 95.0 1020.5 0.0 11.3 0.0
04:55 16.8 95.0 1020.4 1.6 11.3 0.0
05:05 17.0 96.0 1020.6 1.6 11.3 0.0
05:15 17.0 96.0 1020.6 0.0 11.3 0.0
05:25 17.2 96.0 1020.7 0.0 11.3 0.0
05:35 17.6 96.0 1020.7 0.0 11.3 0.0
05:45 18.1 96.0 1020.8 0.0 11.3 0.0
05:55 18.7 96.0 1020.7 0.0 11.3 0.0
06:05 19.3 96.0 1020.8 0.0 11.3 0.0
06:15 19.5 95.0 1021.0 0.0 11.3 0.0
06:25 19.9 94.0 1021.0 3.2 11.3 0.0
06:35 20.2 90.0 1020.9 3.2 11.3 0.0
Màxima 20.6 96.0 1021.0 4.8 11.3 0.2
Mínima 16.8 90.0 1020.0
Total 0.2